Lexington Weather

Lexington, Massachusetts, USA

34°F
4/16/2021 10:29am 
  • Lexington Conditions: Snow, Fog, Overcast
  • Temperature: 34.0°F / 1.1°C 
  • Dew Point: 32.7°F 
  • Relative Humidity: 95
  • Wind: Calm, 10-min avg: Calm, gust: None
  • Barometer: 29.48 in Steady
  • Visibility: ½ mile
  • Snow Today: 1.3 in
  •   

Regional Weather Roundup
for Boston / Norton, MA

        
000
ASUS41 KBOX 160305
RWRBOX

REGIONAL WEATHER ROUNDUP
NATIONAL WEATHER SERVICE BOSTON/NORTON MA
1100 PM EDT THU APR 15 2021

NOTE:  "FAIR" INDICATES FEW OR NO CLOUDS BELOW 12,000 FEET WITH NO 
SIGNIFICANT WEATHER AND/OR OBSTRUCTIONS TO VISIBILITY.

MAZALL-160400-
EASTERN MASSACHUSETTS
  
CITY           SKY/WX    TMP DP  RH WIND       PRES   REMARKS
BOSTON         LGT RAIN  43  40  89 E16       29.74F                  
BEVERLY        NOT AVBL                                               
LAWRENCE       RAIN      41  36  82 NE8       29.76F                  
BEDFORD        LGT RAIN  41  39  93 NE10      29.72F                  
BLUE HILL        N/A     38  37  97 E15G22    29.69F WCI  29          
NORWOOD        LGT RAIN  42  37  82 E7        29.73S                  
MARSHFIELD     DRIZZLE   45  39  81 E15       29.71F                  
PLYMOUTH       LGT RAIN  42  38  85 E6        29.70F                  
TAUNTON        RAIN      41  38  89 NE5       29.70F                  
NEW BEDFORD    LGT RAIN  42  39  89 NE10      29.67F                  
$$

MAZALL-160400-
CAPE COD AND THE ISLANDS
  
CITY           SKY/WX    TMP DP  RH WIND       PRES   REMARKS
FALMOUTH       CLOUDY    41  39  93 E14       29.67F                  
HYANNIS        CLOUDY    44  38  79 E9        29.67F                  
CHATHAM        LGT RAIN  44  38  79 E15       29.69F                  
PROVINCETOWN   CLOUDY    44  36  73 E13G21    29.72F                  
NANTUCKET      LGT RAIN  44  40  85 E17G28    29.64F                  
MARTHAS VNYRD  LGT RAIN  44  41  89 E14       29.65F                  
$$
 
MAZALL-160400-
CENTRAL AND WESTERN MASSACHUSETTS
  
CITY           SKY/WX    TMP DP  RH WIND       PRES   REMARKS
WORCESTER      FLURRIES  36  34  92 VRB5      29.71R                  
FITCHBURG      LGT RAIN  39  37  92 VRB5      29.73F                  
ORANGE         LGT SNOW  35  34  96 NW7       29.76R FOG     WCI  29  
SPRINGFIELD    RAIN      38  37  94 NE13      29.73F FOG     WCI  31  
WESTFIELD      RAIN      39  37  92 N10       29.73F                  
NORTH ADAMS    LGT RAIN  37  36  96 CALM      29.73F                  
PITTSFIELD     LGT SNOW  33  33 100 CALM      29.71S FOG              
$$
 
RIZALL-160400-
RHODE ISLAND
  
CITY           SKY/WX    TMP DP  RH WIND       PRES   REMARKS
PROVIDENCE     RAIN      41  38  89 NE5       29.71S                  
NEWPORT        RAIN      40  39  97 N5        29.68S FOG              
BLOCK ISLAND   RAIN      41  40  96 NE15G26   29.64F FOG              
SMITHFIELD     RAIN      39  39 100 E6        29.70S                  
WESTERLY       LGT RAIN  39  39 100 N8        29.67R FOG              
$$
 
CTZALL-160400-
CONNECTICUT
  
CITY           SKY/WX    TMP DP  RH WIND       PRES   REMARKS
BRADLEY INTL   RAIN      40  37  89 N6        29.73F FOG              
HARTFORD       RAIN      40  36  86 N9        29.73F FOG              
BRIDGEPORT     LGT RAIN  43  40  89 N10       29.69F                  
DANBURY        LGT RAIN  43  38  82 N7        29.71S                  
GROTON         RAIN      41  39  93 N8        29.68S FOG              
NEW HAVEN      LGT RAIN  43  40  89 N12       29.69F FOG              
CHESTER        RAIN      39  37  93 N7        29.70F                  
MERIDEN        LGT RAIN  40  36  86 VRB6      29.71F                  
WILLIMANTIC    RAIN      39  36  89 N7        29.73S                  
OXFORD         LGT RAIN  37  37 100 N14       29.69F WCI  28          
$$

MEZ002-015-021-024-NHZ003-005-008-011-012-014-VTZ005-008-160400-
NORTHERN NEW ENGLAND
  
CITY           SKY/WX    TMP DP  RH WIND       PRES   REMARKS
PORTLAND ME    CLOUDY    43  38  82 E10       29.81F                  
BANGOR ME      MOCLDY    39  24  55 CALM      29.85S                  
CONCORD NH     LGT RAIN  39  35  86 CALM      29.77F                  
MANCHESTER NH  LGT RAIN  42  36  79 NE6       29.74F                  
NASHUA NH      LGT RAIN  41  40  96 E9        29.75F                  
PORTSMOUTH NH  CLOUDY    43  36  74 E10       29.78F                  
JAFFREY NH     LGT SNOW  34  32  92 VRB3      29.72S VSB 1            
KEENE NH       LGT SNOW  34  33  96 NE5       29.75F FOG     WCI  30  
BURLINGTON VT  LGT RAIN  42  35  76 S9        29.73F                  
MT. WASHINGTON NOT AVBL                                               
$$

NYZ052-076-160400-
EASTERN NEW YORK
  
CITY           SKY/WX    TMP DP  RH WIND       PRES   REMARKS
ALBANY         FLURRIES  35  35 100 N3        29.74F                  
NEW YORK CITY  MOCLDY    48  41  76 N9        29.68F                  
$$
 
ANZALL-160400-
MARINE OBSERVATIONS
  
STATION/POSITION TIME  TEMP    WIND        PRES    VSBY  WAVE
                       AIR SEA DIR/SP/G                  HT/PER
                 (UTC) (F)     (DEG/KT/KT) (MB)    (MI)  (FT/S)
BOSTON BUOY      0250   44 45   70/ 14/ 17 1007.1F         6/11
BUZZARDS BAY     0200           60/ 23/ 25 1005.5F
NANTUCKET SOUND  0250      47                N/A           3/ 5
MASS BAY-STELLWA 0204   45     100/ 12/ 16 1007.1F  1 7/8  5/11
ISLE OF SHOALS   0200   43      90/ 13/ 14 1008.4F
S OF BLOCK IS    0226      44                N/A           6/ 6
$$

......................KEY.........................
  SKY/WX - SKY CONDITION/PRESENT WEATHER
  TMP    - TEMPERATURE IN FAHRENHEIT
  DWPT   - DEWPOINT IN FAHRENHEIT
  RH     - RELATIVE HUMIDITY IN PERCENT
  WIND   - DIRECTION AND SPEED IN MPH
  PRES   - MEAN SEA LEVEL PRESSURE IN INCHES OF HG
  WCI    - WIND CHILL INDEX
  VSB    - VISIBILITY IN MILES
  HX     - HEAT INDEX
  TC     - TEMPERATURE IN CELSIUS
  VRB    - VARIABLE WIND DIRECTION
  N/A    - NOT AVAILABLE
  
      

Other recent Regional Weather Roundups

Fri Apr 16, 10:05am

Fri Apr 16, 9:04am

Fri Apr 16, 8:04am

Fri Apr 16, 7:04am

Fri Apr 16, 6:04am

Fri Apr 16, 5:04am

Fri Apr 16, 4:04am

Fri Apr 16, 3:04am

Fri Apr 16, 2:04am

Fri Apr 16, 1:04am

Fri Apr 16, 12:04am

Thu Apr 15, 10:04pm

Thu Apr 15, 9:04pm

Thu Apr 15, 8:04pm

Thu Apr 15, 7:05pm

Thu Apr 15, 6:04pm

Thu Apr 15, 5:05pm

Thu Apr 15, 4:04pm

Thu Apr 15, 3:05pm

Thu Apr 15, 2:04pm

Thu Apr 15, 1:05pm

Thu Apr 15, 12:04pm

Thu Apr 15, 11:04am

Thu Apr 15, 10:05am

Thu Apr 15, 9:04am

Thu Apr 15, 8:04am

Thu Apr 15, 7:04am

Thu Apr 15, 6:04am

Thu Apr 15, 5:04am

Thu Apr 15, 4:04am

Thu Apr 15, 3:04am

Thu Apr 15, 2:04am

Thu Apr 15, 1:04am

Thu Apr 15, 12:04am

Wed Apr 14, 11:04pm

Wed Apr 14, 10:04pm

Wed Apr 14, 9:04pm

Wed Apr 14, 8:04pm

Wed Apr 14, 7:04pm

Wed Apr 14, 6:04pm

Wed Apr 14, 5:05pm

Wed Apr 14, 4:04pm

Wed Apr 14, 3:05pm

Wed Apr 14, 2:04pm

Wed Apr 14, 1:05pm

Wed Apr 14, 12:04pm

Wed Apr 14, 11:04am

Wed Apr 14, 10:04am

Wed Apr 14, 9:04am

Wed Apr 14, 8:04am

Wed Apr 14, 7:04am

Wed Apr 14, 6:04am

Wed Apr 14, 5:04am

Wed Apr 14, 4:04am

Wed Apr 14, 3:04am

Wed Apr 14, 2:04am

Wed Apr 14, 1:04am

Wed Apr 14, 12:04am

Tue Apr 13, 11:04pm

Tue Apr 13, 10:05pm

Tue Apr 13, 9:05pm

Tue Apr 13, 8:05pm

Tue Apr 13, 7:04pm

Tue Apr 13, 6:04pm

Tue Apr 13, 5:05pm

Tue Apr 13, 4:04pm

Tue Apr 13, 3:04pm

Tue Apr 13, 2:05pm

Tue Apr 13, 1:04pm

Tue Apr 13, 12:05pm

Tue Apr 13, 11:05am

Tue Apr 13, 10:04am

Tue Apr 13, 9:04am

Tue Apr 13, 8:04am

Tue Apr 13, 7:04am

Tue Apr 13, 6:04am

Tue Apr 13, 5:04am

Tue Apr 13, 4:04am

Tue Apr 13, 3:04am

Tue Apr 13, 2:04am

Tue Apr 13, 1:04am

Tue Apr 13, 12:05am

Mon Apr 12, 11:04pm

Mon Apr 12, 10:04pm

Mon Apr 12, 9:04pm

Mon Apr 12, 8:04pm

Mon Apr 12, 7:05pm

Mon Apr 12, 6:04pm

Mon Apr 12, 5:04pm

Mon Apr 12, 4:04pm

Mon Apr 12, 3:05pm

Mon Apr 12, 2:04pm

Mon Apr 12, 1:05pm

Mon Apr 12, 12:04pm

Mon Apr 12, 11:04am

Mon Apr 12, 10:04am

Mon Apr 12, 9:04am

Mon Apr 12, 8:04am

Mon Apr 12, 7:04am

Mon Apr 12, 6:04am

Mon Apr 12, 5:04am

Mon Apr 12, 4:04am

Mon Apr 12, 3:04am

Mon Apr 12, 2:04am

Mon Apr 12, 1:05am

Mon Apr 12, 12:04am

Sun Apr 11, 11:04pm

Sun Apr 11, 10:04pm

Sun Apr 11, 9:04pm

Sun Apr 11, 8:04pm

Sun Apr 11, 7:04pm

Sun Apr 11, 6:05pm

Sun Apr 11, 5:05pm

Sun Apr 11, 4:04pm

Sun Apr 11, 3:05pm

Sun Apr 11, 2:05pm

Sun Apr 11, 1:05pm

Sun Apr 11, 12:04pm

Sun Apr 11, 11:05am

Sun Apr 11, 10:05am

Sun Apr 11, 9:04am

Sun Apr 11, 8:04am

Sun Apr 11, 7:04am

Sun Apr 11, 6:04am

Sun Apr 11, 5:04am

Sun Apr 11, 4:04am

Sun Apr 11, 3:04am

Sun Apr 11, 2:04am

Sun Apr 11, 1:05am

Sun Apr 11, 12:04am

Sat Apr 10, 11:05pm

Sat Apr 10, 10:04pm

Sat Apr 10, 9:04pm

Sat Apr 10, 8:04pm

Sat Apr 10, 7:05pm

Sat Apr 10, 6:04pm

Sat Apr 10, 5:04pm

Sat Apr 10, 4:04pm

Sat Apr 10, 3:04pm

Sat Apr 10, 2:05pm

Sat Apr 10, 1:04pm

Sat Apr 10, 12:04pm

Sat Apr 10, 11:04am

Sat Apr 10, 10:04am

Sat Apr 10, 9:04am

Sat Apr 10, 8:04am

Sat Apr 10, 7:04am

Sat Apr 10, 6:04am

Sat Apr 10, 5:04am

Sat Apr 10, 4:04am

Sat Apr 10, 3:04am

Sat Apr 10, 2:04am

Sat Apr 10, 1:05am

Sat Apr 10, 12:04am

Fri Apr 9, 11:04pm

Fri Apr 9, 10:05pm

Fri Apr 9, 9:04pm

Fri Apr 9, 8:05pm

Fri Apr 9, 7:05pm

Fri Apr 9, 6:04pm

Fri Apr 9, 5:04pm

Fri Apr 9, 4:05pm

Fri Apr 9, 3:05pm

Fri Apr 9, 2:04pm

Fri Apr 9, 1:04pm

Fri Apr 9, 12:04pm

Fri Apr 9, 11:05am

Meta data:

ID: bf2628e8-bda1-4801-9571-ec5c6ec4daa7
Link: https://api.weather.gov/products/bf2628e8-bda1-4801-9571-ec5c6ec4daa7